Location: Düngen
(52.0952°N, 10.0219°E)
Time: 14:48:51
(UTC+00:00)

SPOT 5 - Pass Details

Date: 11 March 2026
Orbit: 618 x 803 km, 98.0° (Epoch: 14 April)

Event Time Altitude Azimuth Distance (km) Brightness Sun altitude
Rises 18:42:47 0° 160° (SSE) 3,299 6.0 -13.9°
Reaches altitude 10° 18:45:07 10° 160° (SSE) 2,377 5.2 -14.2°
Maximum altitude 18:50:25 82° 74° (ENE) 816 3.0 -15.0°
Drops below altitude 10° 18:55:41 10° 347° (NNW) 2,364 5.9 -15.8°
Sets 18:58:00 0° 347° (NNW) 3,280 6.7 -16.1°
